This is the latest recevied weather packets stored in our database for station/object AI5YA-13. If no packets are shown the sender has not sent any weather packets the latest 10 day(s).
| Time | Temp. | Humidity | Pressure | Rain* | Wind** | Luminosity | Snow |
|---|---|---|---|---|---|---|---|
| 1777763484 | 18.89° C | 44% | 1021.2 hPa | 0 mm | - | 333 W/m² | - |
| 1777763182 | 20° C | 44% | 1021.3 hPa | 0 mm | - | 342 W/m² | - |
| 1777762881 | 20° C | 44% | 1021.5 hPa | 0 mm | - | 365 W/m² | - |
| 1777762575 | 19.44° C | 43% | 1021.1 hPa | 0 mm | - | 367 W/m² | - |
| 1777762273 | 20° C | 43% | 1021.2 hPa | 0 mm | - | 348 W/m² | - |
| 1777761969 | 18.89° C | 45% | 1021.4 hPa | 0 mm | - | 428 W/m² | - |
| 1777761666 | 18.33° C | 44% | 1021.1 hPa | 0 mm | - | 204 W/m² | - |
| 1777761364 | 18.89° C | 45% | 1021.7 hPa | 0 mm | - | 232 W/m² | - |
| 1777761062 | 18.89° C | 45% | 1021.5 hPa | 0 mm | - | 225 W/m² | - |
| 1777760759 | 18.89° C | 45% | 1021.3 hPa | 0 mm | - | 228 W/m² | - |
| 1777760455 | 19.44° C | 42% | 1021.5 hPa | 0 mm | - | 251 W/m² | - |
| 1777760151 | 19.44° C | 42% | 1021.5 hPa | 0 mm | - | 262 W/m² | - |
| 1777759848 | 19.44° C | 43% | 1021.7 hPa | 0 mm | - | 275 W/m² | - |
| 1777759544 | 19.44° C | 42% | 1021.9 hPa | 0 mm | - | 616 W/m² | - |
| 1777759241 | 19.44° C | 44% | 1021.8 hPa | 0 mm | - | 389 W/m² | - |
| 1777758938 | 18.89° C | 46% | 1022 hPa | 0 mm | - | 637 W/m² | - |
| 1777758635 | 18.89° C | 46% | 1021.8 hPa | 0 mm | - | 271 W/m² | - |
| 1777758332 | 18.89° C | 45% | 1022 hPa | 0 mm | - | 249 W/m² | - |
| 1777758029 | 18.89° C | 46% | 1022 hPa | 0 mm | - | 237 W/m² | - |
| 1777757726 | 18.89° C | 45% | 1022.2 hPa | 0 mm | - | 282 W/m² | - |
| 1777757424 | 18.89° C | 42% | 1022.2 hPa | 0 mm | - | 275 W/m² | - |
| 1777757122 | 20° C | 42% | 1022.4 hPa | 0 mm | - | 278 W/m² | - |
| 1777756820 | 19.44° C | 42% | 1022.2 hPa | 0 mm | - | 292 W/m² | - |
| 1777756515 | 19.44° C | 44% | 1022.3 hPa | 0 mm | - | 310 W/m² | - |
| 1777756213 | 19.44° C | 44% | 1022.5 hPa | 0 mm | - | 279 W/m² | - |
* Rain latest hour (hover to see other rain measurements)
** Current wind speed in m/s (hover to see current wind gust speed)